Content
SEND FEEDBACK

Daily
Averages
Monthly
Summary
United States of America

NEWFANE, VERMONT


Home > North America > United States > Vermont
Elevation: 686 feet     Latitude: 42 59N     Longitude: 072 39W

WEATHER
 
SELECT A DAY
Number of Records: 445,974;   Date Range: 1/1/95 - 8/30/14
 
SHARE

PRINT THIS DATA

[ ← Previous Day ]
WEATHER ALMANAC - APRIL 25, 2014
[ Next Day → ]
[ °C ]   °F
Weather ElementAverageHighLow
Temperature48.1 °F64.4 °F (4:55 pm)28.4 °F (4:35 am)
Dewpoint21.4 °F30.2 °F (8:55 pm)15.8 °F (12:15 pm)
Humidity39.5 %74 % (4:55 am)15 % (5:55 pm)
Barometer29.92 in30.03 in (6:55 am)29.79 in (7:15 pm)
Wind Speed3.6 mph12.7 mph (9:55 am)
Wind Gust17.3 mph (9:55 am)
Weather ElementAverage
Visibility10 mi
Wind DirectionESE (109.4 °)

Weather ElementTotal
Precipitation---
Heating Degree Days18.6 (Base 65)
Averaged from 71 records on April 25, 2014
WEATHER CONDITIONS BREAKOUT
WIND DIRECTION BREAKOUT
WEATHER BY HOUR - APRIL 25, 2014
[ °C ]   °F
Local TimeTemperatureDewpointHumidityBarometerVisibilityWind DirectionWind SpeedGust SpeedPrecipitationEventsConditions
12:35 AM39.2 °F21.2 °F49 %29.97 in10.0 miCalmClear
12:55 AM37.4 °F21.2 °F52 %29.97 in10.0 miCalmClear
1:15 AM35.6 °F21.2 °F56 %29.97 in10.0 miCalmClear
1:35 AM35.6 °F21.2 °F56 %29.96 in10.0 miCalmClear
1:55 AM33.8 °F21.2 °F60 %29.95 in10.0 miCalmClear
2:15 AM33.8 °F21.2 °F60 %29.95 in10.0 miCalmClear
2:35 AM35.6 °F21.2 °F56 %29.95 in10.0 miWSW (240°)3.5 mphClear
2:55 AM33.8 °F21.2 °F60 %29.95 in10.0 miCalmClear
3:15 AM33.8 °F21.2 °F60 %29.95 in10.0 miCalmClear
3:35 AM32.0 °F21.2 °F64 %29.95 in10.0 miCalmClear
3:55 AM30.2 °F21.2 °F69 %29.95 in10.0 miCalmClear
4:15 AM30.2 °F21.2 °F69 %29.96 in10.0 miCalmClear
4:35 AM28.4 °F19.4 °F69 %29.96 in10.0 miSSW (200°)4.6 mphClear
4:55 AM28.4 °F21.2 °F74 %29.97 in10.0 miCalmClear
5:15 AM28.4 °F19.4 °F69 %29.98 in10.0 miSSW (200°)4.6 mphClear
5:35 AM28.4 °F19.4 °F69 %30.00 in10.0 miCalmClear
5:55 AM30.2 °F19.4 °F64 %30.00 in10.0 miCalmClear
6:15 AM28.4 °F17.6 °F64 %30.02 in10.0 miSouth (190°)4.6 mphClear
6:35 AM28.4 °F19.4 °F69 %30.02 in10.0 miSouth (190°)3.5 mphClear
6:55 AM30.2 °F19.4 °F64 %30.03 in10.0 miCalmClear
7:15 AM32.0 °F21.2 °F64 %30.03 in10.0 miCalmClear
7:35 AM35.6 °F23.0 °F60 %30.03 in10.0 miCalmClear
7:55 AM35.6 °F24.8 °F65 %30.03 in10.0 miCalmClear
8:15 AM37.4 °F24.8 °F60 %30.03 in10.0 miCalmClear
8:35 AM42.8 °F23.0 °F46 %30.03 in10.0 miCalmClear
8:55 AM44.6 °F21.2 °F39 %30.03 in10.0 miNNW (340°)5.8 mphClear
9:15 AM44.6 °F23.0 °F43 %30.03 in10.0 miNNE (20°)3.5 mphClear
9:35 AM48.2 °F24.8 °F40 %30.03 in10.0 miNNW (340°)9.2 mphClear
9:55 AM48.2 °F21.2 °F34 %30.02 in10.0 miNorth (10°)12.7 mph17.3 mphClear
10:15 AM50.0 °F21.2 °F32 %30.02 in10.0 miNorth (360°)6.9 mph16.1 mphClear
10:35 AM51.8 °F21.2 °F30 %30.01 in10.0 miNNW (340°)8.1 mphClear
10:55 AM51.8 °F21.2 °F30 %30.00 in10.0 miNorth (360°)8.1 mphClear
11:15 AM51.8 °F19.4 °F28 %29.99 in10.0 miNorth (10°)6.9 mphClear
11:35 AM53.6 °F19.4 °F26 %29.97 in10.0 miNorth (350°)6.9 mphClear
11:55 AM53.6 °F17.6 °F24 %29.96 in10.0 miNorth (360°)8.1 mphClear
12:15 PM53.6 °F15.8 °F22 %29.96 in10.0 miNW (310°)3.5 mphClear
12:35 PM53.6 °F15.8 °F22 %29.95 in10.0 miCalmClear
12:55 PM55.4 °F15.8 °F21 %29.94 in10.0 miNorth (10°)5.8 mphClear
1:15 PM55.4 °F17.6 °F23 %29.93 in10.0 miESE (110°)3.5 mphClear
1:35 PM57.2 °F17.6 °F21 %29.92 in10.0 miEast (80°)3.5 mphClear
1:55 PM57.2 °F19.4 °F23 %29.91 in10.0 miSSE (160°)5.8 mphClear
2:15 PM60.8 °F19.4 °F20 %29.91 in10.0 miCalmClear
2:35 PM60.8 °F19.4 °F20 %29.90 in10.0 miSouth (170°)3.5 mphClear
2:55 PM60.8 °F17.6 °F19 %29.89 in10.0 miSW (220°)6.9 mphClear
3:15 PM62.6 °F17.6 °F18 %29.88 in10.0 miSouth (190°)6.9 mphClear
3:35 PM62.6 °F17.6 °F18 %29.87 in10.0 miSouth (180°)3.5 mphClear
3:55 PM62.6 °F17.6 °F18 %29.85 in10.0 miNE (40°)3.5 mphClear
4:15 PM62.6 °F17.6 °F18 %29.85 in10.0 miSouth (190°)9.2 mphClear
4:35 PM62.6 °F17.6 °F18 %29.84 in10.0 miCalmClear
4:55 PM64.4 °F17.6 °F16 %29.83 in10.0 miSSW (200°)9.2 mphClear
5:15 PM64.4 °F17.6 °F16 %29.83 in10.0 miSouth (190°)5.8 mphClear
5:35 PM64.4 °F17.6 °F16 %29.81 in10.0 miCalmClear
5:55 PM64.4 °F15.8 °F15 %29.81 in10.0 miCalmClear
6:15 PM62.6 °F15.8 °F16 %29.80 in10.0 miCalmClear
6:35 PM62.6 °F19.4 °F19 %29.80 in10.0 miSSE (160°)5.8 mphClear
6:55 PM60.8 °F21.2 °F22 %29.80 in10.0 miSSE (160°)5.8 mphClear
7:15 PM60.8 °F24.8 °F25 %29.79 in10.0 miSouth (180°)5.8 mphClear
7:35 PM57.2 °F26.6 °F31 %29.79 in10.0 miCalmClear
7:55 PM57.2 °F24.8 °F29 %29.80 in10.0 miSouth (170°)4.6 mphClear
8:15 PM55.4 °F26.6 °F33 %29.80 in10.0 miCalmClear
8:35 PM53.6 °F28.4 °F38 %29.80 in10.0 miCalmPartly Cloudy
8:55 PM53.6 °F30.2 °F41 %29.81 in10.0 miCalmPartly Cloudy
9:15 PM53.6 °F30.2 °F41 %29.81 in10.0 miCalmClear
9:35 PM51.8 °F30.2 °F44 %29.81 in10.0 miSSW (200°)5.8 mphPartly Cloudy
9:55 PM53.6 °F28.4 °F38 %29.82 in10.0 miSSW (210°)6.9 mphMostly Cloudy
10:15 PM53.6 °F28.4 °F38 %29.82 in10.0 miSouth (180°)6.9 mphMostly Cloudy
10:35 PM55.4 °F26.6 °F33 %29.82 in10.0 miSSW (200°)5.8 mphMostly Cloudy
10:55 PM53.6 °F26.6 °F35 %29.81 in10.0 miSouth (180°)10.4 mphOvercast
11:15 PM55.4 °F26.6 °F33 %29.80 in10.0 miSouth (190°)10.4 mphOvercast
11:35 PM53.6 °F26.6 °F35 %29.80 in10.0 miSSW (200°)8.1 mphMostly Cloudy
11:55 PM53.6 °F26.6 °F35 %29.80 in10.0 miSouth (180°)9.2 mphMostly Cloudy
Hourly data recorded from KEEN, located miles away from Newfane, Vermont







STORIES FROM OUR PARTNERS